This demonstration page uses our WeatherBlox Daily Observations layout. Learn more.

Left ArrowRight Arrow

Hourly Observations for September 27, 2021

Temp ( °F °C ) Dew Point ( °F °C ) Humidity (%) Winds ( mph kmh ) Pressure ( in mb ) Visibility ( mi km ) Precip ( " mm )
12:15 am 00:15 Clear 61 16 52 11 72 72 S 9 15 29.99 1016 10 16 N/A
12:35 am 00:35 Clear 59 15 52 11 77 77 S 8 13 30.00 1016 10 16 N/A
12:55 am 00:55 Clear 59 15 52 11 77 77 SSW 6 9 30.00 1016 10 16 N/A
1:15 am 01:15 Clear 59 15 52 11 77 77 S 6 9 30.00 1016 10 16 N/A
1:35 am 01:35 Clear 57 14 52 11 82 82 S 6 9 30.01 1016 10 16 N/A
1:55 am 01:55 Clear 57 14 54 12 88 88 SSE 6 9 30.01 1016 10 16 N/A
2:15 am 02:15 Clear 57 14 54 12 88 88 S 7 11 30.01 1016 10 16 N/A
2:35 am 02:35 Clear 57 14 54 12 88 88 SSE 7 11 30.01 1016 10 16 N/A
2:55 am 02:55 Clear 57 14 54 12 88 88 S 7 11 30.00 1016 10 16 N/A
3:15 am 03:15 Clear 57 14 54 12 88 88 S 7 11 29.99 1015 10 16 N/A
3:35 am 03:35 Clear 57 14 54 12 88 88 S 9 15 29.99 1015 10 16 N/A
3:55 am 03:55 Clear 57 14 52 11 82 82 S 9 15 29.99 1015 10 16 N/A
4:15 am 04:15 Clear 59 15 52 11 77 77 S 10 17 29.97 1015 10 16 N/A
4:35 am 04:35 Clear 57 14 52 11 82 82 S 8 13 29.98 1015 10 16 N/A
4:55 am 04:55 Clear 57 14 54 12 88 88 S 7 11 29.98 1015 10 16 N/A
5:15 am 05:15 Clear 57 14 54 12 88 88 S 9 15 29.97 1015 10 16 N/A
5:35 am 05:35 Clear 57 14 54 12 88 88 S 9 15 29.97 1015 10 16 N/A
5:55 am 05:55 Clear 57 14 54 12 88 88 S 8 13 29.97 1015 10 16 N/A
6:15 am 06:15 Clear 57 14 54 12 88 88 S 9 15 29.97 1015 10 16 N/A
6:35 am 06:35 Clear 57 14 54 12 88 88 S 9 15 29.97 1015 10 16 N/A
6:55 am 06:55 Clear 57 14 54 12 88 88 S 9 15 29.97 1015 10 16 N/A
7:15 am 07:15 Clear 57 14 54 12 88 88 S 9 15 29.97 1015 10 16 N/A
7:35 am 07:35 Clear 57 14 54 12 88 88 S 9 15 29.97 1015 10 16 N/A
7:55 am 07:55 Sunny 57 14 54 12 88 88 S 8 13 29.97 1015 10 16 N/A
8:15 am 08:15 Sunny 57 14 54 12 88 88 S 9 15 29.97 1015 10 16 N/A
8:35 am 08:35 Mostly Cloudy 59 15 55 13 88 88 S 8 13 29.96 1015 10 16 N/A
8:55 am 08:55 Partly Cloudy 61 16 55 13 83 83 S 10 17 29.95 1014 10 16 N/A
9:15 am 09:15 Sunny 63 17 55 13 77 77 S 10 17 29.95 1014 10 16 N/A
9:35 am 09:35 Sunny 64 18 55 13 73 73 S 9 15 29.94 1014 10 16 N/A
9:55 am 09:55 Sunny 66 19 57 14 73 73 SSW 9 15 29.94 1014 10 16 N/A
10:15 am 10:15 Sunny 70 21 57 14 64 64 SSW 10 17 29.93 1013 10 16 N/A
10:35 am 10:35 Sunny 72 22 57 14 61 61 SSW 13 20 29.92 1013 10 16 N/A
10:55 am 10:55 Sunny 73 23 57 14 57 57 SW 15 24 29.91 1013 10 16 N/A
11:15 am 11:15 Sunny 73 23 59 15 61 61 SW 14 22 29.91 1013 10 16 N/A
11:35 am 11:35 Sunny 75 24 59 15 57 57 SW 15 24 29.91 1013 10 16 N/A
11:55 am 11:55 Sunny 77 25 59 15 54 54 SW 17 28 29.90 1013 10 16 N/A
12:15 pm 12:15 Sunny 79 26 59 15 51 51 SSW 16 26 29.89 1012 10 16 N/A
12:35 pm 12:35 Sunny 79 26 59 15 51 51 SW 16 26 29.89 1012 10 16 N/A
12:55 pm 12:55 Sunny 79 26 59 15 51 51 SW 17 28 29.88 1012 10 16 N/A
1:15 pm 13:15 Sunny 81 27 59 15 48 48 SW 15 24 29.88 1012 10 16 N/A
1:35 pm 13:35 Sunny 81 27 59 15 48 48 SW 17 28 29.88 1012 10 16 N/A
1:55 pm 13:55 Sunny 81 27 61 16 51 51 SW 14 22 29.87 1011 10 16 N/A
2:15 pm 14:15 Sunny 81 27 61 16 51 51 SW 14 22 29.87 1011 10 16 N/A
2:35 pm 14:35 Sunny 81 27 59 15 48 48 SW 14 22 29.86 1011 10 16 N/A
2:55 pm 14:55 Sunny 82 28 61 16 48 48 SW 15 24 29.84 1011 10 16 N/A
3:15 pm 15:15 Sunny 82 28 61 16 48 48 SSW 13 20 29.83 1010 10 16 N/A
3:35 pm 15:35 Sunny 82 28 61 16 48 48 SW 16 26 29.83 1010 10 16 N/A
3:55 pm 15:55 Sunny 84 29 61 16 45 45 SSW 16 26 29.82 1010 10 16 N/A
4:15 pm 16:15 Sunny 84 29 61 16 45 45 SW 14 22 29.82 1010 10 16 N/A
4:35 pm 16:35 Sunny 84 29 61 16 45 45 SW 15 24 29.81 1010 10 16 N/A
4:55 pm 16:55 Sunny 84 29 61 16 45 45 SW 15 24 29.81 1010 10 16 N/A
5:15 pm 17:15 Sunny 84 29 61 16 45 45 SW 15 24 29.81 1010 10 16 N/A
5:35 pm 17:35 Sunny 82 28 61 16 48 48 SSW 17 28 29.81 1010 10 16 N/A
5:55 pm 17:55 Sunny 82 28 61 16 48 48 SSW 15 24 29.82 1010 10 16 N/A
6:15 pm 18:15 Sunny 82 28 61 16 48 48 SSW 14 22 29.82 1010 10 16 N/A
6:35 pm 18:35 Sunny 81 27 61 16 51 51 SSW 13 20 29.83 1010 10 16 N/A
6:55 pm 18:55 Sunny 81 27 59 15 48 48 SSW 12 19 29.83 1010 10 16 N/A
7:15 pm 19:15 Sunny 79 26 59 15 51 51 SSW 12 19 29.83 1010 10 16 N/A
7:35 pm 19:35 Clear 77 25 59 15 54 54 SSW 9 15 29.83 1010 10 16 N/A
7:55 pm 19:55 Clear 75 24 61 16 61 61 S 7 11 29.85 1011 10 16 N/A
8:15 pm 20:15 Clear 73 23 63 17 69 69 S 8 13 29.85 1011 10 16 N/A
8:35 pm 20:35 Clear 73 23 63 17 69 69 S 8 13 29.86 1011 10 16 N/A
8:55 pm 20:55 Clear 72 22 63 17 73 73 S 7 11 29.86 1011 10 16 N/A
9:15 pm 21:15 Clear 72 22 63 17 73 73 S 8 13 29.86 1011 10 16 N/A
9:35 pm 21:35 Clear 72 22 63 17 73 73 SSW 6 9 29.87 1012 10 16 N/A
9:55 pm 21:55 Clear 72 22 63 17 73 73 SSW 6 9 29.88 1012 10 16 N/A
10:15 pm 22:15 Clear 70 21 63 17 78 78 S 6 9 29.89 1012 10 16 N/A
10:35 pm 22:35 Clear 70 21 63 17 78 78 S 6 9 29.89 1012 10 16 N/A
10:55 pm 22:55 Clear 70 21 63 17 78 78 SSW 6 9 29.90 1012 10 16 N/A
11:15 pm 23:15 Clear 72 22 63 17 73 73 SSW 8 13 29.89 1012 10 16 N/A
11:35 pm 23:35 Clear 73 23 61 16 65 65 SSW 12 19 29.89 1012 10 16 N/A
11:55 pm 23:55 Clear 72 22 63 17 73 73 SW 12 19 29.89 1012 10 16 N/A

Powered by AerisWeather